Wind_Speed
14 14 15 16 17 17 19 20 22 24 26 28 30 32 34 36 40 44 46 48 47 51 60 71 80 90 89 88 83 77 72 69 69 68 68 66 66 64 61 59 56 56 50 48 51
17 17 18 19 20 21 21 22 24 25 27 29 31 33 35 37 40 43 47 49 50 50 57 68 78 88 94 91 88 81 76 75 72 69 66 69 67 61 57 59 59 56 55 49 49
19 20 21 21 22 22 23 24 25 27 28 30 32 34 36 38 40 43 47 52 52 47 51 63 76 86 93 94 91 86 80 80 76 72 68 71 69 64 54 61 58 58 58 55 53
18 19 20 20 22 22 24 25 26 28 30 32 34 35 36 38 41 44 47 52 49 42 44 56 73 84 90 97 93 90 85 84 77 75 75 68 68 63 55 60 61 62 61 59 59
19 20 20 22 23 24 25 27 28 30 31 33 33 34 36 38 40 43 46 51 45 35 37 49 67 82 89 96 98 95 93 87 83 79 74 75 72 67 61 60 64 66 61 59 62
21 22 24 25 25 25 26 28 30 30 31 33 34 35 37 39 39 42 43 48 40 28 28 42 60 77 88 94 101 95 96 91 84 78 79 75 74 73 69 57 57 65 61 63 63
24 26 27 27 27 27 27 29 30 31 31 33 34 36 37 38 39 41 42 44 37 21 18 32 51 67 81 88 96 98 98 88 82 82 78 76 76 75 76 74 72 65 67 66 70
27 28 28 28 28 29 29 30 31 31 32 33 34 36 37 38 38 38 41 42 39 20 13 22 37 56 73 84 88 92 89 81 83 84 83 78 76 72 74 75 75 76 72 69 73
30 30 30 31 31 31 31 32 32 33 33 33 35 35 36 36 37 37 38 40 40 26 12 14 29 48 65 75 83 87 86 87 89 89 86 80 76 75 74 72 74 77 78 76 80
30 32 33 34 35 35 34 34 34 34 34 34 34 35 35 35 35 35 35 35 36 32 16 8 20 36 53 66 73 80 85 87 90 89 86 81 76 79 65 73 77 78 79 84 77
33 33 34 35 35 36 36 37 38 37 36 36 35 35 35 34 34 33 32 32 30 31 23 11 11 30 48 61 73 82 85 83 83 87 86 83 74 79 77 82 79 74 79 81 78
37 37 38 39 39 38 38 38 38 38 38 38 37 36 35 35 34 32 30 28 26 24 23 13 5 13 28 45 60 69 71 77 85 86 81 76 69 73 80 83 86 81 84 86 81
40 41 41 39 39 40 40 39 39 40 40 39 38 38 37 35 33 32 30 26 22 20 18 17 9 11 22 37 50 62 73 78 78 75 73 76 74 75 81 85 87 89 92 87 83
41 41 42 41 41 40 41 41 41 40 41 40 40 41 38 36 33 31 30 26 22 16 14 16 10 8 14 24 35 51 57 64 69 71 76 83 81 82 92 91 92 93 93 87 86
43 43 43 42 43 43 44 44 44 43 44 45 44 42 39 36 34 32 28 24 22 19 13 15 14 11 10 17 30 39 50 62 67 70 73 79 83 88 92 95 97 95 95 94 96
45 44 44 45 46 48 49 49 49 47 46 47 45 43 39 37 35 33 27 24 22 21 19 20 18 18 16 19 23 30 39 50 59 65 69 75 81 83 94 97 99 97 98 98 99
48 48 48 47 46 45 45 46 46 45 45 44 44 42 38 36 33 28 25 23 23 22 22 23 24 25 25 26 26 29 32 42 51 58 65 67 72 81 88 96 98 99 100 100 100
42 41 39 35 33 33 34 34 35 35 36 36 33 33 30 29 24 24 20 24 21 21 22 24 21 32 31 32 32 36 37 40 47 49 56 64 72 73 79 85 89 92 94 96 98
34 33 34 32 32 33 31 24 22 21 22 24 24 23 20 22 18 21 20 22 23 23 23 24 21 28 34 35 36 41 43 47 49 53 58 68 71 75 78 84 87 87 90 90 90
34 32 34 35 34 32 29 25 24 24 23 24 23 28 23 24 29 25 22 31 25 28 26 30 27 28 34 31 34 40 43 48 51 56 60 67 76 79 82 87 86 90 88 89 91
42 38 41 37 36 34 31 29 28 30 29 29 30 31 30 30 32 30 26 34 27 33 31 33 31 32 36 34 37 41 42 45 49 52 54 58 67 80 81 88 86 86 87 87 86
47 44 49 41 43 40 36 36 33 34 30 32 32 33 34 34 33 34 31 33 30 31 31 29 31 33 37 38 40 44 45 49 51 54 56 60 64 77 84 83 81 81 86 89 91
49 49 49 48 46 43 39 41 39 38 38 36 36 36 36 37 37 35 31 33 28 25 24 22 21 22 23 21 24 31 36 42 45 48 54 59 65 78 76 77 80 83 87 92 94
42 40 41 50 49 47 45 43 42 41 42 41 38 35 37 36 36 32 28 29 23 22 20 21 20 18 18 20 21 23 27 36 44 52 57 63 69 69 72 76 81 87 90 88 90
45 44 41 43 43 44 49 46 43 45 46 42 38 35 36 37 33 27 24 23 22 19 18 16 12 12 17 19 23 29 29 38 37 41 49 59 67 70 73 78 84 87 86 89 91
51 50 44 45 46 50 47 45 42 48 43 40 34 34 33 29 21 20 18 18 17 19 12 9 11 17 18 23 27 32 35 44 49 51 49 51 57 63 64 70 75 76 76 78 78
55 52 48 48 51 43 38 42 38 39 36 35 33 30 25 20 17 17 16 18 16 15 14 16 17 21 25 29 33 37 42 50 57 57 56 56 54 55 60 63 68 65 68 67 68
Wind_Direction
261 266 269 272 274 274 274 274 275 275 276 278 279 280 281 282 281 279 282 287 281 264 249 237 229 227 226 226 226 225 221 225 227 231 228 231 233 242 245 243 240 241 240 246 250
268 272 272 275 276 278 278 281 281 281 281 282 283 285 286 286 287 288 292 297 291 273 249 236 228 225 224 224 224 223 221 225 223 227 232 231 233 235 242 241 247 247 247 249 254
275 277 279 279 280 279 281 285 286 287 287 289 290 291 292 293 296 299 300 303 298 278 251 232 226 223 221 222 222 221 221 223 223 225 225 233 230 230 239 245 242 247 249 249 252
277 279 280 282 284 286 288 290 291 291 291 293 295 297 298 299 303 304 307 310 304 281 251 234 223 220 219 219 220 220 220 222 224 224 225 224 231 229 232 243 240 240 241 244 250
280 283 285 287 291 292 293 294 296 296 296 299 301 303 305 306 309 310 314 318 311 285 252 230 222 217 216 217 217 217 219 220 222 223 224 228 229 228 229 245 245 241 245 249 254
277 282 285 289 290 291 294 296 299 300 301 303 305 307 308 310 313 316 320 327 321 293 253 228 220 215 215 214 217 216 218 218 220 221 224 226 229 231 227 227 243 245 247 248 245
277 280 284 287 288 291 293 297 300 302 303 306 308 311 312 314 316 319 327 336 336 305 260 234 222 215 215 215 216 217 218 220 219 223 224 225 230 229 231 235 233 239 243 244 248
278 281 284 287 289 291 294 297 300 301 304 307 312 315 317 320 321 324 331 341 349 333 270 234 218 219 214 214 216 217 218 215 217 221 224 226 229 231 234 235 238 238 238 245 247
281 283 284 287 289 290 294 296 298 300 303 307 312 317 319 322 325 329 334 343 355 352 317 250 224 213 214 215 215 214 216 215 217 219 223 225 227 230 236 238 239 240 242 240 244
281 283 282 283 285 288 291 294 296 298 300 304 311 317 319 322 325 330 334 342 352 0 348 278 227 215 214 214 214 215 217 217 219 223 225 226 226 234 236 241 241 242 244 245 245
281 282 283 283 282 284 288 292 296 297 298 302 309 314 318 320 323 326 331 336 347 359 2 343 247 222 215 214 214 215 217 219 222 225 226 228 232 234 233 240 244 248 251 251 249
280 280 283 284 283 284 287 290 293 296 297 301 305 311 315 316 318 322 325 330 336 349 359 355 293 246 236 224 221 220 221 223 224 224 227 229 229 236 241 245 246 245 245 250 255
278 281 283 283 284 285 286 288 291 293 296 299 302 305 309 312 313 317 319 318 322 332 344 343 326 257 229 221 221 222 222 223 227 228 229 230 230 234 239 246 247 248 250 253 257
278 279 281 282 285 285 285 287 289 291 293 296 299 302 304 305 306 310 311 308 304 308 319 315 325 275 238 232 231 231 229 230 231 232 229 232 233 234 236 240 246 248 253 253 252
280 280 281 282 284 284 284 284 286 287 291 293 294 296 299 300 300 304 302 296 287 283 279 280 287 288 276 234 228 224 224 228 232 234 235 237 237 236 240 243 247 250 253 256 257
278 280 280 281 283 283 283 284 284 286 286 286 287 292 294 295 296 298 295 290 279 270 266 259 262 260 255 251 247 239 233 234 235 238 240 241 244 246 244 246 249 252 254 256 260
281 282 282 285 286 285 283 283 284 284 281 281 285 286 288 290 293 290 290 283 277 270 261 255 256 254 250 248 246 245 240 240 242 243 245 247 250 251 252 251 253 254 256 258 259
283 285 286 285 284 286 286 287 286 283 283 285 284 285 286 285 283 286 286 281 279 273 268 260 255 255 252 249 245 249 246 246 247 247 249 249 249 253 257 259 259 259 259 259 259
280 280 283 283 290 287 291 294 300 303 298 292 290 282 287 285 277 284 285 276 282 281 280 274 258 260 256 253 251 248 250 249 250 252 255 257 257 256 258 259 262 263 264 266 267
270 273 278 282 287 289 288 293 297 296 298 297 292 288 287 284 289 289 286 285 282 279 280 278 273 269 267 261 258 254 252 253 252 254 256 262 264 261 260 260 260 262 266 269 270
271 273 276 280 282 284 285 284 285 290 289 289 287 288 288 287 287 285 286 281 284 283 282 279 279 273 271 268 266 266 262 259 258 257 259 263 269 270 267 265 266 267 270 271 272
268 271 274 274 277 279 281 281 285 284 287 285 286 285 287 288 285 285 283 282 286 282 285 284 280 276 274 273 272 270 269 270 269 269 267 265 266 269 272 275 277 277 278 277 273
270 266 269 272 272 271 275 277 279 282 282 281 283 285 289 289 285 283 281 281 281 287 290 290 290 290 287 287 282 284 282 281 278 276 274 273 270 270 276 279 279 277 276 275 277
277 275 270 271 270 267 265 269 277 282 283 277 278 284 288 289 287 283 277 276 280 288 288 289 292 292 299 296 291 296 303 294 288 282 277 274 270 272 272 274 275 274 274 278 280
274 273 273 274 270 270 265 265 272 281 280 274 274 282 290 290 285 277 266 276 282 279 284 287 275 278 308 316 313 321 312 325 313 298 283 275 273 273 273 272 273 275 278 279 279
265 269 272 277 278 280 267 263 270 276 278 266 270 281 288 290 283 268 269 272 273 284 277 283 284 293 306 309 314 323 323 318 316 318 314 300 286 277 273 273 274 276 276 278 279
258 263 268 273 283 276 257 254 266 279 272 258 266 276 280 284 279 273 269 270 265 260 271 286 294 307 314 318 322 327 327 318 315 323 314 302 290 285 285 284 282 282 280 283 283
Height
10859 10859 10859 10859 10858 10858 10858 10858 10858 10857 10856 10855 10854 10853 10851 10849 10845 10840 10837 10831 10824 10818 10815 10816 10824 10832 10842 10855 10863 10876 10891 10887 10895 10899 10912 10913 10916 10929 10937 10940 10940 10940 10948 10949 10953
10856 10855 10855 10855 10854 10854 10853 10853 10852 10851 10850 10848 10847 10844 10841 10837 10831 10826 10819 10812 10803 10795 10791 10795 10803 10809 10824 10835 10849 10864 10878 10874 10884 10887 10905 10907 10914 10923 10929 10928 10931 10938 10941 10945 10944
10852 10851 10851 10850 10850 10849 10848 10847 10846 10844 10843 10841 10838 10835 10831 10825 10818 10812 10804 10793 10782 10772 10768 10773 10782 10791 10806 10820 10834 10852 10865 10858 10873 10882 10889 10892 10903 10914 10920 10916 10924 10929 10934 10939 10933
10847 10847 10846 10845 10844 10843 10842 10841 10839 10837 10835 10832 10829 10825 10819 10813 10806 10798 10790 10777 10763 10751 10749 10753 10760 10774 10789 10803 10818 10836 10847 10844 10867 10871 10876 10884 10892 10905 10907 10902 10909 10913 10919 10925 10922
10843 10842 10841 10841 10839 10838 10836 10834 10832 10829 10827 10823 10819 10815 10810 10803 10796 10786 10777 10763 10746 10735 10732 10736 10743 10756 10771 10786 10798 10815 10827 10836 10846 10854 10868 10875 10883 10891 10896 10893 10897 10905 10912 10918 10916
10838 10837 10836 10835 10834 10832 10830 10828 10825 10823 10820 10816 10811 10806 10800 10793 10787 10777 10767 10752 10735 10724 10720 10723 10731 10743 10755 10769 10783 10802 10808 10823 10835 10851 10854 10864 10873 10879 10883 10882 10891 10892 10903 10904 10902
10833 10832 10831 10830 10828 10826 10824 10822 10819 10816 10813 10809 10804 10798 10792 10786 10778 10769 10759 10746 10729 10718 10715 10718 10723 10735 10749 10764 10776 10789 10799 10827 10837 10838 10845 10855 10860 10867 10866 10879 10880 10882 10887 10886 10888
10827 10826 10825 10823 10822 10820 10818 10815 10812 10810 10806 10802 10797 10791 10785 10778 10771 10763 10752 10741 10727 10718 10714 10715 10720 10731 10741 10753 10769 10788 10807 10821 10818 10824 10831 10845 10847 10858 10862 10866 10868 10870 10874 10876 10876
10821 10819 10818 10817 10815 10813 10811 10809 10806 10803 10800 10796 10791 10785 10780 10774 10767 10759 10750 10739 10729 10720 10715 10715 10718 10722 10734 10749 10763 10778 10792 10795 10800 10809 10818 10833 10836 10845 10848 10850 10853 10856 10860 10860 10863
10814 10813 10811 10810 10808 10806 10804 10802 10799 10796 10793 10789 10785 10780 10774 10769 10762 10756 10749 10742 10733 10725 10719 10718 10720 10726 10735 10746 10762 10770 10775 10783 10788 10803 10817 10826 10829 10835 10836 10836 10840 10842 10844 10841 10857
10807 10806 10804 10802 10800 10798 10797 10794 10792 10789 10786 10783 10780 10775 10770 10764 10759 10754 10748 10742 10737 10730 10725 10722 10724 10726 10731 10739 10745 10752 10764 10778 10791 10796 10805 10819 10829 10823 10825 10828 10829 10831 10830 10828 10838
10799 10798 10796 10793 10791 10790 10788 10786 10784 10781 10779 10776 10773 10770 10765 10761 10756 10751 10747 10743 10739 10735 10730 10728 10727 10730 10738 10745 10751 10760 10773 10778 10775 10783 10806 10817 10818 10818 10817 10814 10812 10817 10812 10813 10828
10790 10789 10787 10785 10783 10781 10779 10777 10776 10774 10771 10769 10766 10763 10760 10757 10752 10748 10744 10741 10739 10737 10734 10732 10731 10732 10734 10737 10743 10749 10754 10763 10774 10795 10804 10802 10809 10806 10797 10794 10800 10795 10796 10807 10819
10781 10780 10778 10776 10774 10772 10770 10768 10767 10766 10763 10761 10758 10756 10754 10751 10748 10745 10741 10738 10736 10736 10736 10733 10734 10733 10734 10738 10745 10749 10763 10770 10776 10780 10784 10785 10794 10787 10777 10780 10781 10784 10783 10797 10798
10771 10770 10769 10767 10765 10763 10761 10759 10758 10757 10755 10751 10749 10747 10745 10744 10741 10739 10737 10735 10733 10732 10734 10732 10732 10734 10737 10737 10737 10743 10749 10752 10760 10767 10773 10771 10776 10768 10763 10768 10769 10771 10773 10778 10776
10759 10759 10759 10757 10755 10752 10750 10749 10747 10748 10746 10742 10740 10739 10738 10735 10734 10732 10731 10729 10729 10728 10729 10729 10731 10732 10734 10735 10738 10743 10747 10750 10753 10755 10759 10758 10759 10759 10751 10747 10752 10761 10762 10761 10761
10748 10748 10748 10746 10744 10741 10739 10737 10736 10736 10733 10731 10731 10730 10730 10727 10725 10725 10724 10723 10722 10724 10725 10725 10726 10727 10729 10731 10735 10735 10739 10742 10743 10746 10747 10750 10745 10733 10734 10734 10738 10744 10745 10743 10747
10737 10736 10736 10735 10733 10731 10730 10728 10725 10725 10722 10721 10721 10720 10721 10720 10719 10717 10719 10715 10717 10718 10719 10719 10724 10718 10723 10725 10729 10728 10732 10735 10731 10734 10733 10729 10722 10728 10723 10715 10717 10721 10723 10723 10724
10728 10727 10727 10726 10725 10724 10722 10721 10718 10716 10715 10714 10714 10713 10714 10712 10715 10713 10713 10712 10711 10712 10712 10712 10716 10714 10714 10716 10719 10721 10723 10723 10724 10723 10721 10708 10711 10710 10709 10702 10698 10701 10698 10700 10706
10719 10719 10718 10717 10717 10716 10715 10714 10713 10711 10710 10709 10709 10706 10709 10709 10705 10707 10709 10702 10707 10704 10706 10704 10707 10707 10703 10708 10710 10709 10711 10712 10713 10711 10709 10697 10684 10687 10687 10681 10687 10682 10690 10687 10684
10710 10712 10708 10708 10708 10709 10709 10708 10708 10704 10704 10703 10702 10700 10700 10701 10699 10699 10703 10695 10700 10695 10697 10695 10697 10698 10695 10699 10698 10697 10699 10698 10698 10698 10698 10694 10678 10652 10663 10655 10670 10674 10671 10673 10671
10698 10703 10694 10701 10699 10700 10701 10699 10700 10697 10698 10696 10695 10693 10692 10691 10691 10690 10691 10689 10690 10688 10687 10688 10686 10686 10684 10687 10688 10685 10686 10684 10684 10683 10683 10681 10677 10639 10633 10650 10656 10654 10643 10636 10631
10685 10688 10687 10686 10687 10689 10692 10690 10690 10689 10688 10688 10687 10686 10684 10682 10681 10681 10683 10679 10681 10681 10680 10679 10678 10676 10675 10678 10678 10676 10674 10670 10670 10669 10665 10660 10653 10629 10640 10638 10633 10625 10614 10601 10599
10674 10674 10676 10671 10676 10677 10677 10680 10679 10679 10678 10678 10678 10677 10675 10673 10672 10672 10673 10671 10674 10673 10672 10672 10671 10670 10669 10670 10671 10667 10664 10661 10657 10653 10648 10639 10630 10634 10628 10618 10606 10592 10588 10591 10584
10661 10661 10665 10662 10660 10664 10664 10667 10670 10668 10667 10668 10669 10668 10666 10663 10663 10663 10664 10664 10664 10666 10666 10665 10664 10664 10664 10662 10659 10657 10654 10648 10642 10637 10631 10621 10613 10612 10605 10593 10583 10579 10578 10569 10560
10648 10649 10652 10650 10648 10649 10651 10655 10659 10654 10657 10657 10660 10659 10658 10655 10655 10656 10657 10658 10659 10658 10659 10659 10659 10657 10657 10655 10652 10648 10642 10633 10625 10620 10613 10601 10590 10585 10582 10571 10564 10561 10558 10549 10545
10632 10635 10637 10637 10636 10636 10638 10639 10646 10646 10646 10649 10650 10652 10651 10650 10650 10650 10651 10652 10653 10653 10653 10653 10652 10650 10648 10645 10641 10639 10631 10619 10608 10606 10594 10580 10571 10565 10557 10549 10539 10539 10533 10531 10522